Preview of NWS' New Version of Forecast
This preview is not operational and should not be used for support decisions.

Regional Weather Roundup (RWR)

Issued by National Weather Service (NWS)

                            
000
ASUS44 KJAN 201310
RWRMS 

MISSISSIPPI HOURLY WEATHER ROUNDUP
NATIONAL WEATHER SERVICE JACKSON MS
800 AM CDT SAT APR 20 2019

NOTE: "FAIR: INDICATES FEW OR NO CLOUDS BELOW 12,000 FEET WITH NO
SIGNIFICANT WEATHER AND/OR OBSTRUCTIONS TO VISIBILITY.

MSZ001>002-007>008-010>013-018>021-025>028-034>036-201400-
NORTHWEST MISSISSIPPI
  
CITY           SKY/WX    TMP DP  RH WIND       PRES   REMARKS
BATESVILLE     FAIR      50  36  57 W7G13     29.90R                  
CLARKSDALE     SUNNY     54  37  54 W12       29.93R                  
CLEVELAND      FAIR      50  40  67 W8G16     29.96R                  
GREENWOOD      FAIR      52  36  54 VRB7      29.94R                  
GREENVILLE     FAIR      51  40  65 W10       29.97R                  
OLIVE BRANCH   SUNNY     48  32  53 NW15      29.87R                  
OXFORD         FAIR      48  34  57 W12       29.89R                  
TUNICA           N/A     50  36  57 NW14      29.92R                  
WINONA         FAIR      48  38  67 W5        29.92R                  
$$

MSZ003>006-009-014>017-022>024-029>033-037>039-201400-
NORTHEAST MISSISSIPPI
  
CITY           SKY/WX    TMP DP  RH WIND       PRES   REMARKS
ABERDEEN       FAIR      48  41  76 NW12G18   29.85R                  
COLUMBUS AFB   NOT AVBL                                               
CORINTH        FAIR      48  32  53 W15G26    29.79R                  
GOLDN TRIANGLE FAIR      50  38  63 NW12G20   29.87R                  
STARKVILLE     FAIR      50  37  62 NW10G16   29.89R                  
TUPELO         FAIR      50  33  52 NW10G18   29.83R                  
$$

MSZ040-058-201400-
CENTRAL MISSISSIPPI
  
CITY           SKY/WX    TMP DP  RH WIND       PRES   REMARKS
JACKSON INTL   FAIR      52  41  66 W9        29.97R                  
JACKSON HAWKNS FAIR      51  43  74 W9        29.98R                  
MADISON        FAIR      50  41  71 W5        29.97R                  
MERIDIAN KEY   FAIR      52  42  69 W12       29.92R                  
MERIDIAN NAS   FAIR      53  41  63 W16       29.91R                  
RAYMOND        FAIR      50  48  93 W5        29.99R                  
VICKSBURG VKS  SUNNY     52  43  71 NW8       30.01R                  
$$

MSZ059>079-201400-
SOUTH MISSISSIPPI
  
CITY           SKY/WX    TMP DP  RH WIND       PRES   REMARKS
HATTIESBURG    FAIR      53  43  68 W12       29.98R                  
LAUREL         SUNNY     52  44  74 NW10      29.96R                  
MCCOMB         FAIR      52  42  69 NW9       30.01R                  
NATCHEZ        FAIR      50  47  89 CALM      30.04R                  
PINE BELT      FAIR      50  45  83 VRB5      29.99R                  
$$

MSZ080>082-201400-
COASTAL MISSISSIPPI
  
CITY           SKY/WX    TMP DP  RH WIND       PRES   REMARKS
BAY ST LOUIS   SUNNY     52  48  87 NW8       30.00R                  
BILOXI         FAIR      55  47  72 NW9G16    29.98R                  
PASCAGOULA     FAIR      57  47  69 W6        29.98R                  
GULFPORT       FAIR      54  47  77 NW10      29.99R                  
$$

LAZ007>009-015>016-023>026-201400-
NORTHEAST LOUISIANA
  
CITY           SKY/WX    TMP DP  RH WIND       PRES   REMARKS
BASTROP        FAIR      51  43  73 W5        30.03R                  
TALLULAH/VBURG FAIR      53  43  68 W6        30.01R                  
VIDALIA        FAIR      51  44  78 NW7       30.03R                  
$$